This demonstration page uses our WeatherBlox Daily Observations layout. Learn more.

Left ArrowRight Arrow

39.51506, -84.39828

Hourly Observations for September 23, 2015

Temp ( °F °C ) Dew Point ( °F °C ) Humidity (%) Winds ( mph kmh ) Pressure ( in mb ) Visibility ( mi km ) Precip ( " mm )
12:15 am 00:15 Clear 57 13.8 53 11.5 86 86 Calm 30.24 1024 10 16.0934 0 0
12:35 am 00:35 Clear 57 13.8 53 11.5 86 86 Calm 30.24 1024 10 16.0934 0 0
12:55 am 00:55 Clear 57 13.8 53 11.6 87 87 NNE 3 6 30.24 1024 10 16.0934 0 0
1:15 am 01:15 Clear 57 13.8 53 11.8 88 88 Calm 30.24 1024 10 16.0934 0 0
1:35 am 01:35 Clear 57 13.8 53 11.8 88 88 N 3 6 30.24 1024 10 16.0934 0 0
1:55 am 01:55 Clear 56 13.3 52 11.3 88 88 NNE 3 6 30.24 1024 10 16.0934 0 0
2:15 am 02:15 Clear 55 12.5 51 10.5 88 88 N 3 6 30.24 1024 10 16.0934 0 0
2:35 am 02:35 Clear 56 13.5 53 11.7 89 89 Calm 30.24 1024 10 16.0934 0 0
2:55 am 02:55 Clear 55 12.7 52 10.9 89 89 NNE 3 6 30.24 1024 10 16.0934 0 0
3:15 am 03:15 Clear 55 13 52 11.2 89 89 NE 3 6 30.24 1024 10 16.0934 0 0
3:35 am 03:35 Clear with Mist and Fog 55 12.5 51 10.6 88 88 NNE 3 6 30.24 1024 4 6.43736 0 0
3:55 am 03:55 Clear 55 12.5 51 10.6 88 88 NE 3 6 30.24 1024 10 16.0934 0 0
4:15 am 04:15 Clear 55 12.5 51 10.6 88 88 NNE 3 6 30.24 1024 7 11.26538 0 0
4:35 am 04:35 Clear 55 12.5 51 10.6 88 88 Calm 30.24 1024 7 11.26538 0 0
4:55 am 04:55 Clear 55 12.5 51 10.7 89 89 Calm 30.24 1024 7 11.26538 0 0
5:15 am 05:15 Clear with Mist and Fog 55 12.5 51 10.7 89 89 Calm 30.24 1024 3 4.82802 0 0
5:35 am 05:35 Clear 55 12.5 51 10.7 89 89 NE 3 6 30.24 1024 7 11.26538 0 0
5:55 am 05:55 Clear 55 12.5 51 10.7 89 89 Calm 30.24 1024 7 11.26538 0 0
6:15 am 06:15 Clear 55 12.5 51 10.7 89 89 ENE 5 7 30.24 1024 7 11.26538 0 0
6:35 am 06:35 Clear with Mist and Fog 55 12.5 51 10.8 89 89 NNE 3 6 30.24 1024 5 8.0467 0 0
6:55 am 06:55 Clear 55 12.5 51 10.8 89 89 NNE 3 6 30.24 1024 10 16.0934 0 0
7:15 am 07:15 Clear 55 12.5 51 10.8 89 89 ENE 3 6 30.27 1025 7 11.26538 0 0
7:35 am 07:35 Sunny 55 12.5 51 10.8 89 89 Calm 30.27 1025 10 16.0934 0 0
7:55 am 07:55 Sunny 55 12.5 51 10.8 89 89 Calm 30.27 1025 10 16.0934 0 0
8:15 am 08:15 Sunny 55 12.5 51 10.8 89 89 Calm 30.27 1025 7 11.26538 0 0
8:35 am 08:35 Sunny 57 13.8 54 12.1 90 90 Calm 30.27 1025 10 16.0934 0 0
8:55 am 08:55 Sunny 60 15.3 56 13.3 88 88 Calm 30.27 1025 10 16.0934 0 0
9:15 am 09:15 Sunny 61 16.3 56 13.2 82 82 Calm 30.27 1025 10 16.0934 0 0
9:35 am 09:35 Sunny 63 17.4 56 13.2 77 77 Calm 30.3 1026 10 16.0934 0 0
9:55 am 09:55 Sunny 68 20 58 14.5 71 71 Calm 30.27 1025 10 16.0934 0 0
10:15 am 10:15 Sunny 69 20.8 57 14 65 65 E 3 6 30.27 1025 10 16.0934 0 0
10:35 am 10:35 Sunny 69 20.8 56 13.2 62 62 Calm 30.27 1025 10 16.0934 0 0
10:55 am 10:55 Sunny 70 20.9 56 13.5 63 63 ENE 3 6 30.27 1025 10 16.0934 0 0
11:15 am 11:15 Sunny 74 23.6 59 15.1 59 59 NE 3 6 30.24 1024 10 16.0934 0 0
11:35 am 11:35 Sunny 74 23.6 56 13.6 54 54 NNE 3 6 30.24 1024 10 16.0934 0 0
11:55 am 11:55 Sunny 77 25.1 57 13.7 49 49 NE 6 9 30.24 1024 10 16.0934 0 0
12:15 pm 12:15 Sunny 80 26.5 51 10.7 37 37 NNE 8 13 30.24 1024 10 16.0934 0 0
12:35 pm 12:35 Sunny 80 26.5 51 10.5 37 37 SSE 3 6 30.24 1024 10 16.0934 0 0
12:55 pm 12:55 Sunny 80 26.5 49 9.6 35 35 NE 7 11 30.24 1024 10 16.0934 0 0
1:15 pm 13:15 Sunny 80 26.6 43 5.9 27 27 E 6 9 30.21 1023 10 16.0934 0 0
1:35 pm 13:35 Sunny 80 26.9 44 6.5 27 27 ENE 9 15 30.21 1023 10 16.0934 0 0
1:55 pm 13:55 Sunny 81 27 44 6.4 27 27 E 7 11 30.21 1023 10 16.0934 0 0
2:15 pm 14:15 Sunny 81 27.2 46 7.7 29 29 ESE 5 7 30.21 1023 10 16.0934 0 0
2:35 pm 14:35 Sunny 81 27.2 47 8.3 30 30 NE 7 11 30.21 1023 10 16.0934 0 0
3:15 pm 15:15 Sunny 82 28 46 7.6 28 28 ENE 8 13 30.18 1022 10 16.0934 0 0
4:15 pm 16:15 Sunny 83 28.1 44 6.8 26 26 NE 6 9 30.18 1022 10 16.0934 0 0
4:35 pm 16:35 Sunny 82 28 44 6.5 26 26 ENE 9 15 30.18 1022 10 16.0934 0 0
4:55 pm 16:55 Sunny 83 28.1 42 5.4 24 24 ENE 8 13 30.15 1021 10 16.0934 0 0
5:15 pm 17:15 Sunny 83 28.2 43 6.1 25 25 ENE 8 13 30.15 1021 10 16.0934 0 0
5:35 pm 17:35 Sunny 82 28 41 4.9 23 23 ENE 7 11 30.15 1021 10 16.0934 0 0
5:55 pm 17:55 Sunny 82 28 42 5.6 24 24 E 6 9 30.15 1021 10 16.0934 0 0
6:15 pm 18:15 Sunny 82 27.6 43 5.9 25 25 E 9 15 30.15 1021 10 16.0934 0 0
6:35 pm 18:35 Sunny 80 26.7 44 6.6 28 28 ENE 6 9 30.15 1021 10 16.0934 0 0
6:55 pm 18:55 Sunny 80 26.5 47 8.4 32 32 ENE 5 7 30.15 1021 10 16.0934 0 0
7:15 pm 19:15 Sunny 76 24.5 48 8.9 37 37 E 5 7 30.15 1021 10 16.0934 0 0
7:35 pm 19:35 Clear 69 20.8 56 13.1 62 62 Calm 30.18 1022 10 16.0934 0 0
7:55 pm 19:55 Clear 69 20.8 58 14.5 67 67 Calm 30.18 1022 10 16.0934 0 0
8:15 pm 20:15 Clear 69 20.8 57 14 65 65 N 5 7 30.18 1022 10 16.0934 0 0
8:35 pm 20:35 Clear 64 18 55 12.7 71 71 Calm 30.18 1022 10 16.0934 0 0
8:55 pm 20:55 Clear 63 17.1 55 12.8 76 76 N 3 6 30.21 1023 10 16.0934 0 0
9:15 pm 21:15 Clear 62 16.5 55 12.9 79 79 Calm 30.21 1023 10 16.0934 0 0
9:35 pm 21:35 Clear 62 16.7 55 12.5 76 76 N 5 7 30.21 1023 10 16.0934 0 0
9:55 pm 21:55 Clear 61 16 55 12.5 80 80 Calm 30.21 1023 10 16.0934 0 0
10:15 pm 22:15 Clear 60 15.5 53 11.9 79 79 N 3 6 30.21 1023 10 16.0934 0 0
10:35 pm 22:35 Clear 60 15.3 54 12.3 82 82 N 3 6 30.21 1023 10 16.0934 0 0
10:55 pm 22:55 Clear 60 15.3 55 12.5 84 84 N 3 6 30.21 1023 10 16.0934 0 0
11:15 pm 23:15 Clear 60 15.3 54 12.4 83 83 NNE 3 6 30.21 1023 10 16.0934 0 0
11:35 pm 23:35 Clear 60 15.3 54 12 81 81 N 3 6 30.21 1023 10 16.0934 0 0
11:55 pm 23:55 Clear 60 15.3 53 11.9 80 80 Calm 30.21 1023 10 16.0934 0 0

Powered by AerisWeather